Starlink 30467

operational
NORAD ID: 57895 Int'l Des: 2023-146 Owner: SPXS Country: US Constellation: starlink
LEOCIRCULAR

Über Starlink 30467

Beschreibung wird geladen...

Live-Position

3D-Globus wird geladen...

Nächste Überflüge

Höhenverlauf

Altitude vs Time

uPlot chart will show altitude changes over time

Zweizeiliger Elementsatz

1 57895U 23146E 25353.18108101 .00000484 00000-0 50866-4 0 9993
2 57895 43.0026 30.9807 0001237 277.8793 82.1909 15.02536364124959
Epoch: 19. Dez. 2025 • Age: 23 hours

Aktueller Status

Höhe 561.3 km
Geschwindigkeit 7.59 km/s
Subsatellitenpunkt 34.51°N, 21.19°E
Startdatum 20. Sept. 2023
Alter 2.2 years
Typ internet

Technische Details

Klassifizierung Payload
Masse 730.00 kg
Trockenmasse 700.00 kg
Gesamtmasse 730.00 kg
Länge 0.30 m
Durchmesser 4.10 m
Spannweite 29.00 m
Form Box + pan
Hersteller SPXS
Bus-Typ Starlink V2M
Phasenstatus In Orbit
Besitzer/Staat SPXS/US

Große Konstellationen

Loading constellations...